Hourly Data Report for September 21, 2017

All times are specified in Local Standard Time (LST). Add 1 hour to adjust for Daylight Saving Time where and when it is observed.

DOAKTOWN AUTO RCS
NEW BRUNSWICK

46°35'06.090" N
66°00'35.071" W
43.00 m
8101201
71038
ADN

Download Data

Hourly Data (September 2017)
Hourly Data Report for September 21, 2017
Temp Definition
°C
Dew Point Temp Definition
°C
Rel Hum Definition
%
Wind Dir Definition
10's deg

Wind Spd Definition
km/h
Visibility Definition
km
Stn Press Definition
kPa
Hmdx Definition


Wind Chill Definition


Weather Definition


TIME
00:00 15.0 13.9 93 2 7   101.31     LegendNANA
01:00 14.2 13.3 95 6 3   101.36     LegendNANA
02:00 13.7 12.9 95   0   101.36     LegendNANA
03:00 12.2 11.4 95 0 1   101.37     LegendNANA
04:00 10.6 9.8 95 35 4   101.41     LegendNANA
05:00 9.2 8.5 96 0 1   101.44     LegendNANA
06:00 8.4 7.8 96   0   101.50     LegendNANA
07:00 9.2 8.6 96 5 5   101.51     LegendNANA
08:00 12.2 8.6 79 2 7   101.56     LegendNANA
09:00 14.7 9.6 71 3 11   101.62     LegendNANA
10:00 16.2 9.8 66 4 14   101.66     LegendNANA
11:00 18.5 8.4 52 6 13   101.64     LegendNANA
12:00 19.5 6.7 43 5 17   101.63     LegendNANA
13:00 20.6 6.6 40 3 15   101.63     LegendNANA
14:00 20.9 5.1 36 6 15   101.59     LegendNANA
15:00 20.5 3.7 33 3 13   101.56     LegendNANA
16:00 19.9 3.0 33 6 13   101.56     LegendNANA
17:00 19.2 4.2 37 8 9   101.60     LegendNANA
18:00 17.2 6.4 49 10 11   101.61     LegendNANA
19:00 13.6 6.2 61 7 4   101.69     LegendNANA
20:00 9.8 5.8 76 5 1   101.72     LegendNANA
21:00 8.1 5.5 84 5 1   101.74     LegendNANA
22:00 6.8 5.0 89 0 1   101.75     LegendNANA
23:00 5.6 4.3 92 0 1   101.77     LegendNANA

Notes on Data Quality.

Legend

  • E = Estimated
  • M = Missing
  • NA = Not Available
  • ‡ = Partner data that is not subject to review by the National Climate Archives
Date modified: